Regional Weather Roundup
Issued by NWS

Home | Current Version | Previous Version | Text Only | Print | Product List | Glossary Off
Versions: 1 2 3 4 5 6 7 8 9 10 11 12 13 14 15 16 17 18 19 20 21 22 23 24 25 26 27 28 29 30 31 32 33 34 35 36 37 38 39 40 41 42 43 44 45 46 47 48 49 50

000
ASUS45 KABQ 241701
RWRNM
NEW MEXICO REGIONAL WEATHER ROUNDUP
NATIONAL WEATHER SERVICE ALBUQUERQUE NM
1000 AM MST SAT FEB 24 2018

NOTE: "FAIR" MEANS FEW OR NO CLOUDS BELOW 12,000 FEET AGL WITH NO
       SIGNIFICANT WEATHER OR OBSTRUCTIONS TO VISION.

      THIS PRODUCT IS RELEASED AS TWO VERSIONS.  ONE VERSION NEAR
      THE TOP OF THE HOUR CONTAINING PRELIMINARY DATA FROM ALBUQUERQUE
      AND OTHER STATIONS.  A FINAL VERSION WITH ADDITIONAL DATA IS
      ISSUED ABOUT 10 MINUTES AFTER THE HOUR.

NMZ501-503-504-510>518-241800-
NORTHWEST PLATEAU/NORTHCENTRAL MOUNTAINS

CITY           SKY/WX    TMP DP  RH WIND       PRES   REMARKS
FARMINGTON     FAIR      27  13  55 W15       30.09R WCI  15
LOS ALAMOS     FAIR      27  -1  30 W3G10     29.97R
SANTA FE       FAIR      32   5  32 W18       29.98R WCI  20
TAOS           FAIR      27   8  44 NW14G21   29.97R WCI  16
ANGEL FIRE     PTSUNNY   19   6  56 W21G31    29.87R WCI   3

$$
NMZ402-403-502-505>509-241800-
WESTCENTRAL MOUNTAINS/SOUTHWEST MOUNTAINS

CITY           SKY/WX    TMP DP  RH WIND       PRES   REMARKS
GALLUP         FAIR      24  14  65 W3        30.10S
GRANTS         FAIR      30  11  46 N12G25    30.10S WCI  20
SILVER CITY    FAIR      36  12  37 W15G21    30.13F WCI  26

$$
NMZ407-409-411-412-241800-
SOUTHERN DESERTS

CITY           SKY/WX    TMP DP  RH WIND       PRES   REMARKS
DEMING         FAIR      43  14  31 NW18G24   30.16R
LAS CRUCES     FAIR      45  10  24 N14       30.12S
ALAMOGORDO     FAIR      45  12  26 N22       30.11R
T OR C         FAIR      40  10  29 NW16G23   30.13R WCI  31

$$
NMZ519>523-241800-
CENTRAL VALLEYS/CENTRAL HIGHLANDS

CITY           SKY/WX    TMP DP  RH WIND       PRES   REMARKS
ALBUQUERQUE    PTSUNNY   33  12  41 NW17      30.10R WCI  22
DOUBLE EAGLE   PTSUNNY   32  12  43 NW17G25   30.09  WCI  21
MORIARTY ARPT  PTSUNNY   34  10  36 W21G30    30.04R WCI  22
CLINES CORNERS FAIR      27  10  49 W37G51    29.95R WCI   9
BELEN          FAIR      36  10  33 NW15G26   30.11R WCI  27
SOCORRO        FAIR      39  10  30 NW14G29   30.12R WCI  30

$$
NMZ524>526-539-540-241800-
SOUTHCENTRAL MOUNTAINS

CITY           SKY/WX    TMP DP  RH WIND       PRES   REMARKS
RUIDOSO        NOT AVBL

$$
NMZ527>531-241800-
NORTHEAST HIGHLANDS/NORTHEAST PLAINS

CITY           SKY/WX    TMP DP  RH WIND       PRES   REMARKS
LAS VEGAS      FAIR      31  -4  22 NW20G28   29.90R WCI  19
RATON          FAIR      34  -1  22 W14G28    29.83S WCI  25
CLAYTON        FAIR      41   7  24 W24G36    29.80R

$$
NMZ532>537-241800-
EASTCENTRAL PLAINS

CITY           SKY/WX    TMP DP  RH WIND       PRES   REMARKS
SANTA ROSA     FAIR      39   8  27 W25G41    29.96S WCI  28
TUCUMCARI      FAIR      48  12  23 W28G35    29.89R
CANNON AFB     FAIR      44  11  26 W26G35    29.96R
CLOVIS AIRPORT FAIR      46  10  23 W30G36    29.96R

$$
NMZ028-029-538-241800-
SOUTHEAST PLAINS

CITY           SKY/WX    TMP DP  RH WIND       PRES   REMARKS
ROSWELL        FAIR      51  13  21 N24G33    29.99S
ARTESIA        FAIR      48  19  32 NE10      30.03R
CARLSBAD       FAIR      57  17  21 W21G32    29.99F
HOBBS          SUNNY     52  18  25 NW15      30.01R


$$




USA.gov is the U.S. government's official web portal to all federal, state and local government web resources and services.